カタログに戻る

SL-8 R/B

運用中PO
NORAD 10992·ROCKET BODY·🇷🇺 Russia

打ち上げ Jul 27, 1978 から Plesetsk Cosmodrome

Loading…

次のパス (今後24時間)

TLE

最新Source: Space-Track

元期: Sep 14, 2026, 00:30 UTC

1 10992U 78074B   26257.02110168 -.00000054  00000-0 -68889-4 0  9992
2 10992  82.9292 277.8996 0019721  28.3766 359.2827 13.78211739599567

AllMySatでSL-8 R/Bをリアルタイム追跡

Download on the App Store